KD8BMB Weather Reports


Display with metric or nautical units.
time (UTC)temp
F
wind
direction
speed
MPH
gust
MPH
rain 1hr
in
rain 24hr
in
rain mn
in
humidity
%
barometer
mb
20260904093607 66 173 0.0 0.0 0.00 0.00 0.00 99 1013.4
20260904093106 66 103 0.0 0.0 0.00 0.00 0.00 99 1013.7
20260904092603 66 74 1.0 2.0 0.00 0.00 0.00 99 1013.6
20260904092059 66 80 0.0 0.0 0.00 0.00 0.00 99 1013.9
20260904091555 66 325 0.0 0.0 0.00 0.00 0.00 99 1014.1
20260904091054 66 39 0.0 0.0 0.00 0.00 0.00 99 1014.3
20260904090550 66 53 0.0 0.0 0.00 0.00 0.00 99 1014.4
20260904090045 66 311 0.0 0.0 0.00 0.00 0.00 99 1014.4
20260904085540 66 76 0.0 0.0 0.00 0.00 0.00 99 1014.5
20260904085034 66 66 0.0 0.0 0.00 0.00 0.00 99 1014.4
20260904084530 66 48 0.0 0.0 0.00 0.00 0.00 99 1014.6
20260904084026 66 285 0.0 0.0 0.00 0.00 0.00 99 1014.6
20260904083522 66 61 0.0 0.0 0.00 0.00 0.00 99 1014.4
20260904083017 66 60 0.0 0.0 0.00 0.00 0.00 99 1014.5
20260904082512 67 52 0.0 0.0 0.00 0.00 0.00 99 1014.3
20260904082007 67 290 0.0 0.0 0.00 0.00 0.00 99 1014.5
20260904081503 67 294 0.0 0.0 0.00 0.00 0.00 99 1014.7
20260904080958 67 284 0.0 0.0 0.00 0.00 0.00 99 1014.6
20260904080454 67 343 0.0 0.0 0.00 0.00 0.00 99 1014.2
20260904075949 67 138 0.0 0.0 0.00 0.00 0.00 99 1014.2
20260904075445 67 60 0.0 0.0 0.00 0.00 0.00 99 1014.6
20260904074944 67 64 0.0 0.0 0.00 0.00 0.00 99 1014.9
20260904074439 66 293 0.0 0.0 0.00 0.00 0.00 99 1014.8
20260904073934 66 213 0.0 0.0 0.00 0.00 0.00 99 1014.6
20260904073430 66 278 0.0 0.0 0.00 0.00 0.00 99 1014.7
20260904072925 66 281 0.0 0.0 0.00 0.00 0.00 99 1014.5
20260904072421 66 284 0.0 0.0 0.00 0.00 0.00 99 1014.4
20260904071916 66 296 0.0 0.0 0.00 0.00 0.00 99 1014.3
20260904071411 66 313 0.0 0.0 0.00 0.00 0.00 99 1014.0
20260904070906 66 358 0.0 0.0 0.00 0.00 0.00 99 1014.1
20260904070405 66 48 0.0 0.0 0.00 0.00 0.00 99 1014.4
20260904065905 66 48 0.0 0.0 0.00 0.00 0.00 99 1014.5
20260904065401 66 318 0.0 0.0 0.00 0.00 0.00 99 1014.8
20260904064901 66 288 0.0 0.0 0.00 0.00 0.00 99 1014.6
20260904064357 66 288 0.0 0.0 0.00 0.00 0.00 99 1015.0
20260904063852 66 288 0.0 0.0 0.00 0.00 0.00 99 1015.0
20260904063349 66 288 0.0 0.0 0.00 0.00 0.00 99 1015.0
20260904062844 66 277 0.0 0.0 0.00 0.00 0.00 99 1015.0
20260904062340 66 290 0.0 0.0 0.00 0.00 0.00 99 1015.1
20260904061835 66 304 0.0 0.0 0.00 0.00 0.00 99 1015.3
20260904061332 66 304 0.0 0.0 0.00 0.00 0.00 99 1015.5
20260904060827 66 302 0.0 0.0 0.00 0.00 0.00 99 1015.4
20260904060324 66 298 0.0 0.0 0.00 0.00 0.00 99 1015.2
20260904055818 66 293 0.0 0.0 0.00 0.00 0.00 99 1015.2
20260904055313 66 321 0.0 0.0 0.00 0.00 0.00 99 1015.4
20260904054809 66 293 0.0 0.0 0.00 0.00 0.00 99 1015.1
20260904054305 66 46 0.0 0.0 0.00 0.00 0.00 99 1015.0
20260904053754 66 338 0.0 0.0 0.00 0.00 0.00 99 1015.0
20260904053254 66 287 0.0 0.0 0.00 0.00 0.00 99 1015.1
20260904052750 66 291 0.0 0.0 0.00 0.00 0.00 99 1015.2
20260904052246 66 291 0.0 0.0 0.00 0.00 0.00 99 1015.4
20260904051742 66 283 0.0 0.0 0.00 0.00 0.00 99 1015.3
20260904051237 66 286 0.0 0.0 0.00 0.00 0.00 99 1015.3
20260904050732 66 295 0.0 0.0 0.00 0.00 0.00 99 1015.2
20260904050229 66 295 0.0 0.0 0.00 0.00 0.00 99 1015.3
20260904045723 66 295 0.0 0.0 0.00 0.00 0.00 99 1015.3
20260904045218 67 277 0.0 0.0 0.00 0.00 0.00 99 1015.4
20260904044713 67 277 0.0 0.0 0.00 0.00 0.00 99 1015.5
20260904044209 67 293 0.0 0.0 0.00 0.00 0.00 99 1015.2
20260904043705 67 306 0.0 0.0 0.00 0.00 0.00 99 1015.3
20260904043202 67 330 0.0 0.0 0.00 0.00 0.00 99 1015.0
20260904042657 67 277 0.0 0.0 0.00 0.00 0.00 99 1015.2
20260904042153 67 303 0.0 0.0 0.00 0.00 0.00 99 1015.4
20260904041647 67 329 0.0 0.0 0.00 0.00 0.00 99 1015.2
20260904041144 67 314 0.0 0.0 0.00 0.00 0.00 99 1015.5
20260904040640 67 292 0.0 0.0 0.00 0.00 0.00 99 1015.3
20260904040135 67 282 0.0 0.0 0.00 0.00 0.00 99 1015.2
20260904035631 67 285 0.0 0.0 0.00 1.08 1.08 99 1015.0
20260904035131 68 316 0.0 0.0 0.00 1.08 1.08 99 1014.9
20260904034630 67 313 0.0 0.0 0.00 1.08 1.08 99 1015.2
20260904034125 68 343 0.0 0.0 0.00 1.08 1.08 99 1015.1
20260904033621 68 311 0.0 0.0 0.00 1.08 1.08 99 1015.2
20260904033119 68 305 0.0 0.0 0.00 1.08 1.08 99 1014.8
20260904032614 68 302 0.0 0.0 0.00 1.08 1.08 99 1014.9
20260904032113 68 311 0.0 0.0 0.00 1.08 1.08 99 1015.1
20260904031612 68 314 0.0 0.0 0.00 1.08 1.08 99 1015.0
20260904031108 68 292 0.0 0.0 0.00 1.08 1.08 99 1014.9
20260904030604 68 292 0.0 0.0 0.00 1.08 1.08 99 1014.6
20260904030059 68 306 0.0 0.0 0.00 1.08 1.08 99 1014.7
20260904025555 69 329 0.0 0.0 0.00 1.08 1.08 99 1014.7
20260904025049 69 330 0.0 0.0 0.00 1.08 1.08 99 1014.7
20260904024545 69 314 0.0 0.0 0.00 1.08 1.08 99 1014.6
20260904024041 69 294 0.0 0.0 0.00 1.08 1.08 99 1014.8
20260904023537 69 289 0.0 0.0 0.00 1.08 1.08 99 1014.7
20260904023032 69 288 0.0 0.0 0.00 1.08 1.08 99 1014.9
20260904022527 69 294 0.0 0.0 0.00 1.08 1.08 99 1014.5
20260904022024 69 311 0.0 0.0 0.00 1.08 1.08 99 1014.5
20260904021519 69 357 0.0 0.0 0.00 1.08 1.08 99 1014.6
20260904021014 70 289 0.0 0.0 0.00 1.08 1.08 99 1014.7
20260904020515 70 303 0.0 0.0 0.00 1.08 1.08 99 1014.7
20260904020009 70 317 0.0 0.0 0.00 1.08 1.08 99 1014.6
20260904015504 70 317 0.0 0.0 0.00 1.08 1.08 99 1014.6
20260904015002 70 308 0.0 0.0 0.00 1.08 1.08 99 1014.6
20260904014457 70 297 0.0 0.0 0.00 1.08 1.08 99 1014.5
20260904013953 70 274 0.0 0.0 0.00 1.08 1.08 99 1014.3
20260904013449 70 315 0.0 0.0 0.00 1.08 1.08 99 1014.5
20260904012945 70 279 0.0 0.0 0.00 1.08 1.08 99 1014.6
20260904012444 71 347 0.0 0.0 0.00 1.08 1.08 99 1014.6
20260904011939 70 316 0.0 0.0 0.00 1.08 1.08 99 1014.8
20260904011433 70 321 0.0 0.0 0.00 1.08 1.08 99 1014.8
20260904010929 70 295 0.0 0.0 0.00 1.08 1.08 99 1014.5
20260904010426 70 295 0.0 0.0 0.00 1.08 1.08 99 1014.6
20260904005920 70 60 0.0 0.0 0.00 1.08 1.08 99 1014.0
20260904005416 70 62 0.0 0.0 0.00 1.08 1.08 99 1014.1
20260904004916 70 62 0.0 0.0 0.00 1.08 1.08 99 1013.7
20260904004412 70 344 0.0 0.0 0.00 1.08 1.08 99 1013.8
20260904003907 70 32 0.0 0.0 0.00 1.08 1.08 99 1013.5
20260904003403 70 354 0.0 0.0 0.00 1.08 1.08 99 1013.7
20260904002857 70 356 0.0 0.0 0.00 1.08 1.08 99 1013.6
20260904002354 70 306 0.0 0.0 0.00 1.08 1.08 99 1014.0
20260904001853 70 286 0.0 0.0 0.00 1.08 1.08 99 1013.6
20260904001349 70 312 0.0 0.0 0.00 1.08 1.08 99 1013.6
20260904000843 71 358 0.0 0.0 0.00 1.08 1.08 99 1013.5
20260904000343 71 287 0.0 0.0 0.00 1.08 1.08 99 1013.3
20260903235843 71 292 0.0 0.0 0.00 1.08 1.08 99 1013.2
20260903235339 71 287 0.0 0.0 0.00 1.08 1.08 99 1013.1
20260903234838 71 299 0.0 0.0 0.00 1.08 1.08 99 1013.2
20260903234335 71 283 0.0 0.0 0.00 1.08 1.08 99 1012.9
20260903233831 72 288 0.0 0.0 0.00 1.08 1.08 99 1013.0
20260903233326 72 304 0.0 0.0 0.00 1.08 1.08 99 1013.3
20260903232825 72 273 0.0 0.0 0.00 1.08 1.08 99 1013.4
20260903232321 72 288 0.0 0.0 0.00 1.08 1.08 99 1013.5
20260903231820 72 265 0.0 0.0 0.00 1.08 1.08 99 1013.4
20260903231316 72 316 0.0 0.0 0.00 1.08 1.08 99 1013.5
20260903230811 72 293 0.0 0.0 0.00 1.08 1.08 99 1013.4
20260903230306 71 290 0.0 0.0 0.00 1.08 1.08 99 1013.4
20260903225803 71 280 0.0 0.0 0.00 1.08 1.08 99 1013.1
20260903225258 72 308 0.0 0.0 0.00 1.08 1.08 99 1012.7
20260903224755 72 286 0.0 0.0 0.00 1.08 1.08 99 1013.0
20260903224250 72 273 0.0 0.0 0.00 1.08 1.08 99 1012.6
20260903223745 71 207 0.0 0.0 0.00 1.08 1.08 99 1012.5
20260903223243 71 329 0.0 0.0 0.00 1.08 1.08 99 1012.4
20260903222739 71 291 0.0 0.0 0.00 1.08 1.08 99 1012.2
20260903222238 71 94 0.0 0.0 0.00 1.08 1.08 99 1012.5
20260903221733 71 278 0.0 0.0 0.00 1.08 1.08 99 1012.5
20260903221231 71 127 1.0 1.0 0.00 1.08 1.08 99 1012.5
20260903220730 70 217 0.0 0.0 0.00 1.08 1.08 99 1012.6
20260903220225 70 314 0.0 1.0 0.00 1.08 1.08 99 1012.9
20260903215718 71 328 0.0 0.0 0.00 1.08 1.08 99 1012.9
20260903215214 71 238 1.0 1.0 0.00 1.08 1.08 99 1012.7
20260903214712 71 312 0.0 1.0 0.00 1.08 1.08 99 1012.7
20260903214209 71 184 2.0 3.0 0.00 1.08 1.08 99 1013.2
20260903213702 71 256 0.0 0.0 0.00 1.08 1.08 99 1013.3
20260903213159 71 327 0.0 0.0 0.00 1.08 1.08 99 1013.4
20260903212654 71 241 0.0 0.0 0.00 1.08 1.08 99 1013.2
20260903212150 72 219 0.0 0.0 0.00 1.08 1.08 99 1013.4
20260903211644 71 351 0.0 0.0 0.00 1.08 1.08 99 1013.4
20260903211141 71 23 0.0 0.0 0.00 1.08 1.08 99 1013.3
20260903210636 71 96 1.0 2.0 0.00 1.08 1.08 99 1013.1
20260903210132 71 101 0.0 0.0 0.00 1.08 1.08 99 1013.2
20260903205631 71 80 1.0 3.0 0.00 1.08 1.08 99 1013.3
20260903205130 71 3 0.0 0.0 0.00 1.08 1.08 99 1013.5
20260903204626 70 132 2.0 2.0 0.00 1.08 1.08 99 1013.7
20260903204122 71 153 0.0 1.0 0.00 1.08 1.08 99 1013.8
20260903203617 71 62 1.0 1.0 0.00 1.08 1.08 99 1013.7
20260903203112 71 242 0.0 0.0 0.00 1.08 1.08 99 1013.8
20260903202607 70 350 0.0 0.0 0.12 1.08 1.08 99 1014.2
20260903202102 70 54 0.0 0.0 0.12 1.08 1.08 99 1014.3
20260903201551 69 336 0.0 0.0 0.12 1.07 1.07 99 1014.6
20260903201050 69 344 1.0 1.0 0.19 1.06 1.06 99 1014.9
20260903200546 69 264 0.0 0.0 0.24 1.05 1.05 99 1014.8
20260903200041 69 281 0.0 0.0 0.24 1.03 1.03 99 1014.4
20260903195537 69 43 0.0 0.0 0.19 1.01 1.01 99 1014.8
20260903195032 69 18 0.0 0.0 0.19 0.99 0.99 99 1015.1
20260903194527 69 282 1.0 2.0 0.24 0.98 0.98 99 1015.6
20260903194022 70 343 0.0 0.0 0.17 0.96 0.96 99 1015.3
20260903193519 70 303 2.0 2.0 0.12 0.94 0.94 99 1015.7
20260903193014 70 60 0.0 0.0 0.07 0.93 0.93 99 1015.6
20260903192510 70 248 0.0 0.0 0.00 0.92 0.92 99 1015.8
20260903192005 70 217 1.0 1.0 0.05 0.92 0.92 99 1015.8
20260903191501 70 259 0.0 0.0 0.24 0.92 0.92 99 1014.8
20260903191000 70 330 0.0 0.0 0.35 0.92 0.92 99 1014.2
20260903190455 70 39 1.0 2.0 0.19 0.88 0.88 99 1014.2
20260903185949 70 53 2.0 3.0 0.07 0.86 0.86 99 1015.2
20260903185445 69 303 1.0 2.0 0.12 0.86 0.86 99 1015.5
20260903184944 70 326 4.0 6.0 0.17 0.85 0.85 99 1014.8
20260903184442 69 283 3.0 3.0 0.12 0.84 0.84 99 1013.8
20260903183936 69 247 0.0 0.0 0.00 0.82 0.82 99 1012.4
20260903183431 69 258 0.0 0.0 0.00 0.82 0.82 99 1012.4
20260903182930 69 252 0.0 0.0 0.00 0.82 0.82 99 1012.6
20260903182429 69 112 1.0 2.0 0.07 0.82 0.82 99 1013.0
20260903181925 68 38 1.0 1.0 1.87 0.82 0.82 99 1013.3
20260903181419 69 3 3.0 5.0 3.31 0.82 0.82 99 1012.5
20260903180918 72 186 3.0 3.0 2.27 0.53 0.53 99 1015.9
20260903180413 73 240 4.0 6.0 0.19 0.17 0.17 99 1014.1
20260903175912 73 338 0.0 1.0 0.07 0.15 0.15 99 1012.6
20260903175407 73 282 0.0 0.0 0.00 0.14 0.14 99 1012.2
20260903174902 73 83 0.0 0.0 0.00 0.14 0.14 99 1012.3
20260903174357 73 11 0.0 0.0 0.00 0.14 0.14 99 1012.4
20260903173857 74 5 0.0 0.0 0.00 0.14 0.14 99 1012.4
20260903173352 74 279 0.0 0.0 0.35 0.14 0.14 98 1012.7
20260903172848 75 328 0.0 0.0 0.42 0.14 0.14 96 1012.7
20260903172342 75 96 1.0 2.0 0.12 0.09 0.09 92 1012.9
20260903171838 75 59 1.0 1.0 0.00 0.07 0.07 92 1013.2
20260903171333 75 70 0.0 0.0 0.00 0.07 0.07 92 1013.0
20260903170832 75 66 0.0 1.0 0.00 0.07 0.07 92 1012.7
20260903170328 76 67 2.0 5.0 0.00 0.07 0.07 91 1012.7
20260903165826 76 91 1.0 1.0 0.00 0.07 0.07 92 1012.7
20260903165325 75 81 1.0 1.0 0.00 0.07 0.07 93 1013.0
20260903164820 75 64 3.0 5.0 0.00 0.07 0.07 93 1013.1
20260903164316 75 54 0.0 1.0 0.00 0.07 0.07 94 1013.3
20260903163815 75 26 0.0 0.0 0.00 0.07 0.07 94 1013.3
20260903163312 75 76 0.0 0.0 0.00 0.07 0.07 95 1013.4
20260903162807 75 158 3.0 5.0 0.00 0.07 0.07 95 1013.5
20260903162306 74 186 0.0 0.0 0.00 0.07 0.07 96 1013.5
20260903161759 74 61 0.0 1.0 0.00 0.07 0.07 96 1013.6
20260903161254 75 302 0.0 0.0 0.00 0.07 0.07 98 1013.6
20260903160750 74 281 0.0 0.0 0.00 0.07 0.07 98 1013.7
20260903160249 74 54 0.0 0.0 0.00 0.07 0.07 98 1013.6
20260903155747 74 56 0.0 1.0 0.00 0.07 0.07 98 1013.8
20260903155242 74 306 0.0 0.0 0.00 0.07 0.07 99 1013.8
20260903154738 73 291 0.0 0.0 0.00 0.07 0.07 99 1013.9
20260903154234 72 19 0.0 1.0 0.00 0.07 0.07 99 1013.9
20260903153729 73 229 3.0 3.0 0.00 0.07 0.07 99 1014.2
20260903153225 73 292 0.0 0.0 0.00 0.07 0.07 99 1014.5
20260903152721 73 265 0.0 0.0 0.00 0.07 0.07 99 1014.7
20260903152217 72 224 1.0 1.0 0.00 0.07 0.07 99 1014.6
20260903151717 73 310 3.0 5.0 0.00 0.07 0.07 99 1015.4
20260903151212 75 308 3.0 5.0 0.00 0.07 0.07 99 1015.2
20260903150707 75 312 0.0 0.0 0.00 0.07 0.07 99 1015.2
20260903150202 76 306 0.0 0.0 0.00 0.07 0.07 99 1015.1
20260903145702 76 249 1.0 2.0 0.00 0.07 0.07 99 1014.7
20260903145157 76 301 1.0 1.0 0.00 0.07 0.07 99 1014.4
20260903144656 77 296 1.0 1.0 0.05 0.07 0.07 99 1013.6
20260903144152 77 349 0.0 0.0 0.35 0.07 0.07 99 1013.3
20260903143648 77 298 0.0 0.0 0.35 0.07 0.07 99 1013.3
20260903143143 78 181 3.0 3.0 0.19 0.04 0.04 97 1013.3
20260903142639 78 311 5.0 7.0 0.00 0.01 0.01 93 1014.3
20260903142135 79 322 0.0 0.0 0.00 0.01 0.01 92 1013.7
20260903141631 80 316 1.0 1.0 0.00 0.01 0.01 89 1013.7
20260903141125 81 56 0.0 0.0 0.00 0.01 0.01 88 1013.2
20260903140622 80 45 0.0 0.0 0.00 0.01 0.01 90 1013.5
20260903140117 78 53 0.0 0.0 0.00 0.01 0.01 92 1013.4
20260903135613 79 299 0.0 0.0 0.00 0.01 0.01 91 1013.5
20260903135112 79 61 0.0 0.0 0.00 0.01 0.01 91 1013.6
20260903134611 78 316 0.0 0.0 0.00 0.01 0.01 93 1013.4
20260903134108 78 305 0.0 0.0 0.00 0.01 0.01 94 1013.7
20260903133605 77 307 0.0 0.0 0.00 0.01 0.01 97 1013.7
20260903133101 76 321 0.0 0.0 0.00 0.01 0.01 98 1014.0
20260903132556 75 265 0.0 0.0 0.00 0.01 0.01 99 1013.8
20260903132050 75 256 0.0 0.0 0.00 0.01 0.01 99 1014.0
20260903131549 75 60 0.0 0.0 0.00 0.01 0.01 99 1013.6
20260903131043 74 74 0.0 0.0 0.05 0.01 0.01 99 1013.8
20260903130538 74 68 0.0 0.0 0.05 0.01 0.01 99 1013.9
20260903130033 73 51 0.0 0.0 0.00 0.00 0.00 99 1013.9
20260903125531 73 84 0.0 0.0 0.00 0.00 0.00 99 1013.8
20260903125027 73 312 0.0 0.0 0.00 0.00 0.00 99 1013.7
20260903124527 73 312 0.0 0.0 0.00 0.00 0.00 99 1013.9
20260903124021 72 285 0.0 0.0 0.00 0.00 0.00 99 1014.0
20260903123521 72 82 0.0 0.0 0.00 0.00 0.00 99 1013.9
20260903123020 72 345 0.0 0.0 0.00 0.00 0.00 99 1014.0
20260903122514 71 41 0.0 0.0 0.00 0.00 0.00 99 1014.0
20260903122014 71 352 0.0 0.0 0.00 0.00 0.00 99 1014.1
20260903121509 70 267 0.0 0.0 0.00 0.00 0.00 99 1013.9
20260903121005 70 314 0.0 0.0 0.00 0.00 0.00 99 1014.1
20260903120503 70 343 0.0 0.0 0.00 0.00 0.00 99 1013.9
20260903120002 69 321 0.0 0.0 0.00 0.00 0.00 99 1013.8
20260903115456 69 310 0.0 0.0 0.00 0.00 0.00 99 1014.1
20260903114956 69 310 0.0 0.0 0.00 0.00 0.00 99 1014.0
20260903114451 69 297 0.0 0.0 0.00 0.00 0.00 99 1014.1
20260903113947 69 297 0.0 0.0 0.00 0.00 0.00 99 1013.8
20260903113443 69 289 0.0 0.0 0.00 0.00 0.00 99 1013.8
20260903112938 69 317 0.0 0.0 0.00 0.00 0.00 99 1013.7
20260903112434 68 320 0.0 0.0 0.00 0.00 0.00 99 1013.8
20260903111933 68 295 0.0 0.0 0.00 0.00 0.00 99 1013.8
20260903111427 68 294 0.0 0.0 0.00 0.00 0.00 99 1014.0
20260903110923 68 304 0.0 0.0 0.00 0.00 0.00 99 1013.8
20260903110419 68 298 0.0 0.0 0.00 0.00 0.00 99 1013.8
20260903105914 69 289 0.0 0.0 0.00 0.00 0.00 99 1013.5
20260903105409 69 303 0.0 0.0 0.00 0.00 0.00 99 1013.4
20260903104909 69 304 0.0 0.0 0.00 0.00 0.00 99 1013.6
20260903104403 69 318 0.0 0.0 0.00 0.00 0.00 99 1013.5
20260903103900 69 304 0.0 0.0 0.00 0.00 0.00 99 1013.4
20260903103356 69 313 0.0 0.0 0.00 0.00 0.00 99 1013.3
20260903102850 69 303 0.0 0.0 0.00 0.00 0.00 99 1013.8
20260903102345 69 302 0.0 0.0 0.00 0.00 0.00 99 1013.5
20260903101844 69 304 0.0 0.0 0.00 0.00 0.00 99 1013.5
20260903101334 69 293 0.0 0.0 0.00 0.00 0.00 99 1013.2
20260903100830 69 291 0.0 0.0 0.00 0.00 0.00 99 1013.3
20260903100330 69 309 0.0 0.0 0.00 0.00 0.00 99 1013.2
20260903095827 69 309 0.0 0.0 0.00 0.00 0.00 99 1013.3
20260903095321 69 319 0.0 0.0 0.00 0.00 0.00 99 1013.5
20260903094816 69 320 0.0 0.0 0.00 0.00 0.00 99 1013.2
20260903094311 69 282 0.0 0.0 0.00 0.00 0.00 99 1013.5